Volver al catálogo

STARLINK-31452

ActivoComunicacionesVLEO
NORAD 59527·PAYLOAD·🇺🇸 United States

Lanzado Apr 17, 2024 desde Cape Canaveral Space Force Station

Loading…

Próximos Pases (próximas 24 horas)

TLE

ActualizadoSource: CelesTrak SupGP

Época: Sep 14, 2026, 22:43 UTC

1 59527C 24073S   26257.94701389 -.00010888  00000+0 -39399-3 0  2576
2 59527  43.0037 329.4758 0001729 274.0902 198.5206 15.27615744    12

Sigue STARLINK-31452 en tiempo real con AllMySat

Download on the App Store